contact:dominique.lefevre@mio.osupytheas.fr, maurice.libes@osupytheas.fr, didier.mallarino@osupytheas.fr
Project:EMSO http://www.emso-fr.org/EMSO-France
Depth: 2436.0 m
Title:EMSO Ligure Ouest : Data MII capteur AQUADOPP
Date,Latitude,Longitude,X_East,Y_North,Z_Up,Amplitude_X,Amplitude_Y,Amplitude_Z,Batterie,SoundSpeed,Heading,Pitch,Roll,Pressure,TIS,Speed,Direction
, degrees North, degrees East, m.s-1, m.s-1,m.s-1, 1, 1, 1, Volt, m.s-1, degree, degree, degree, dbar, degree_C, m.s-1, degree
2022-12-22T00:04:03,42.805,6.029,0.054,-0.025,0.041,100.0,103.0,101.0,13.3,1505.2,319.8,-0.8,1.8,2471.062,13.28,0.059,114.8
2022-12-22T00:07:03,42.805,6.029,0.075,-0.023,0.04,100.0,103.0,101.0,13.4,1505.2,321.3,-0.8,1.8,2471.103,13.28,0.078,107.0
2022-12-22T00:10:03,42.805,6.029,0.059,-0.036,0.037,100.0,103.0,101.0,13.4,1505.2,324.4,-0.8,1.8,2471.096,13.28,0.069,121.4
2022-12-22T00:13:03,42.805,6.029,0.025,-0.019,0.036,101.0,104.0,101.0,13.4,1505.2,322.8,-0.8,1.8,2471.096,13.28,0.031,127.2
2022-12-22T00:16:03,42.805,6.029,0.048,-0.026,0.083,100.0,103.0,101.0,13.3,1505.2,337.2,-0.8,1.8,2471.086,13.28,0.054,118.4
2022-12-22T00:19:03,42.805,6.029,0.017,-0.014,0.053,101.0,102.0,101.0,13.4,1505.2,327.0,-0.7,1.8,2471.08,13.28,0.022,129.5
2022-12-22T00:22:03,42.805,6.029,0.043,-0.021,0.008,100.0,102.0,101.0,13.4,1505.2,321.8,-0.8,1.8,2471.061,13.28,0.047,116.0
2022-12-22T00:25:03,42.805,6.029,0.005,-0.027,0.008,100.0,104.0,100.0,13.4,1505.2,328.8,-0.8,1.8,2471.098,13.28,0.027,169.5
2022-12-22T00:28:03,42.805,6.029,0.061,-0.011,0.012,100.0,102.0,101.0,13.4,1505.2,329.5,-0.8,1.8,2471.03,13.28,0.061,100.2
2022-12-22T00:31:03,42.805,6.029,0.055,-0.025,0.01,102.0,101.0,101.0,13.4,1505.2,317.6,-0.8,1.8,2471.011,13.28,0.06,114.4
2022-12-22T00:34:03,42.805,6.029,0.032,-0.034,0.033,101.0,102.0,101.0,13.3,1505.2,329.6,-0.8,1.9,2471.054,13.28,0.046,136.7
2022-12-22T00:37:03,42.805,6.029,0.065,-0.03,0.078,102.0,103.0,101.0,13.3,1505.2,330.0,-0.7,1.8,2471.023,13.28,0.071,114.8
2022-12-22T00:40:03,42.805,6.029,0.031,-0.039,0.022,100.0,102.0,101.0,13.3,1505.2,334.1,-0.8,1.8,2471.076,13.28,0.049,141.5
2022-12-22T00:43:03,42.805,6.029,0.064,-0.033,0.042,99.0,104.0,100.0,13.4,1505.2,322.6,-0.7,1.8,2471.075,13.28,0.072,117.3
2022-12-22T00:46:03,42.805,6.029,0.057,-0.031,0.034,101.0,103.0,100.0,13.4,1505.2,323.9,-0.8,1.8,2471.085,13.28,0.064,118.5
2022-12-22T00:49:03,42.805,6.029,0.055,-0.044,0.043,100.0,103.0,102.0,13.3,1505.2,330.3,-0.7,1.8,2471.083,13.28,0.07,128.7
2022-12-22T00:52:03,42.805,6.029,0.024,-0.048,0.003,100.0,103.0,100.0,13.4,1505.2,332.0,-0.7,1.8,2471.088,13.28,0.053,153.4
2022-12-22T00:55:03,42.805,6.029,0.053,-0.021,0.045,100.0,103.0,101.0,13.3,1505.2,331.1,-0.8,1.8,2471.078,13.28,0.057,111.6
2022-12-22T00:58:03,42.805,6.029,0.072,-0.05,0.026,100.0,103.0,101.0,13.4,1505.2,323.4,-0.7,1.8,2471.06,13.28,0.087,124.8
2022-12-22T01:04:03,42.805,6.029,0.028,-0.042,0.006,103.0,104.0,103.0,13.4,1505.2,327.7,-0.8,1.8,2471.135,13.28,0.05,146.3
2022-12-22T01:07:03,42.805,6.029,0.022,-0.008,0.042,100.0,102.0,101.0,13.3,1505.2,321.9,-0.8,1.8,2471.103,13.28,0.023,110.0
2022-12-22T01:10:03,42.805,6.029,0.071,-0.06,0.024,100.0,102.0,101.0,13.4,1505.2,326.5,-0.8,1.8,2471.101,13.28,0.092,130.2
2022-12-22T01:13:03,42.805,6.029,0.029,-0.047,0.009,100.0,102.0,101.0,13.4,1505.2,333.7,-0.8,1.8,2471.117,13.28,0.055,148.3
2022-12-22T01:16:03,42.805,6.029,0.015,-0.031,0.033,100.0,103.0,101.0,13.4,1505.2,330.8,-0.7,1.8,2471.09,13.28,0.034,154.2
2022-12-22T01:19:03,42.805,6.029,0.06,-0.007,0.073,101.0,102.0,101.0,13.3,1505.2,321.0,-0.8,1.8,2471.119,13.28,0.06,96.7
2022-12-22T01:22:03,42.805,6.029,0.007,-0.033,0.002,101.0,103.0,100.0,13.4,1505.2,326.9,-0.8,1.8,2471.105,13.28,0.033,168.0
2022-12-22T01:25:03,42.805,6.029,0.043,-0.047,-0.018,102.0,101.0,100.0,13.4,1505.2,328.9,-0.8,1.8,2471.085,13.28,0.063,137.5
2022-12-22T01:28:03,42.805,6.029,0.008,-0.031,0.014,100.0,102.0,101.0,13.3,1505.2,327.2,-0.8,1.8,2471.096,13.28,0.032,165.5
2022-12-22T01:31:03,42.805,6.029,0.052,-0.042,0.032,99.0,101.0,101.0,13.4,1505.2,323.2,-0.8,1.8,2471.071,13.28,0.066,128.9
2022-12-22T01:34:03,42.805,6.029,0.014,-0.034,0.018,99.0,103.0,101.0,13.4,1505.2,337.8,-0.8,1.8,2471.112,13.28,0.036,157.6
2022-12-22T01:37:03,42.805,6.029,0.035,-0.037,0.048,101.0,101.0,101.0,13.3,1505.2,318.8,-0.7,1.8,2471.089,13.28,0.05,136.6
2022-12-22T01:40:03,42.805,6.029,0.045,-0.024,0.039,100.0,102.0,101.0,13.4,1505.2,324.9,-0.8,1.8,2471.11,13.28,0.051,118.1
2022-12-22T01:43:03,42.805,6.029,0.077,-0.054,0.01,100.0,102.0,101.0,13.4,1505.2,322.8,-0.8,1.8,2471.118,13.28,0.094,125.0
2022-12-22T01:46:03,42.805,6.029,0.02,-0.034,0.021,99.0,102.0,102.0,13.3,1505.2,334.5,-0.8,1.8,2471.111,13.28,0.039,149.5
2022-12-22T01:49:03,42.805,6.029,0.028,-0.031,0.049,100.0,101.0,101.0,13.4,1505.2,330.2,-0.8,1.8,2471.125,13.28,0.041,137.9
2022-12-22T01:52:03,42.805,6.029,0.054,-0.031,0.02,101.0,102.0,100.0,13.4,1505.2,324.4,-0.8,1.8,2471.106,13.28,0.062,119.9
2022-12-22T01:55:03,42.805,6.029,0.058,-0.042,-0.007,101.0,102.0,101.0,13.4,1505.2,320.8,-0.7,1.8,2471.124,13.28,0.071,125.9
2022-12-22T01:58:03,42.805,6.029,0.042,-0.042,0.015,100.0,102.0,101.0,13.4,1505.2,330.1,-0.8,1.8,2471.113,13.28,0.059,135.0
2022-12-22T02:04:03,42.805,6.029,0.048,-0.057,0.002,101.0,100.0,101.0,13.4,1505.2,330.8,-0.8,1.8,2471.149,13.28,0.074,139.9
2022-12-22T02:07:03,42.805,6.029,0.059,-0.031,0.064,100.0,102.0,101.0,13.4,1505.2,321.0,-0.8,1.8,2471.174,13.28,0.066,117.7
2022-12-22T02:10:03,42.805,6.029,0.064,-0.037,0.032,101.0,101.0,101.0,13.4,1505.2,320.3,-0.8,1.8,2471.168,13.28,0.073,120.0
2022-12-22T02:13:03,42.805,6.029,0.019,-0.016,0.046,101.0,102.0,100.0,13.4,1505.2,325.4,-0.8,1.8,2471.152,13.28,0.024,130.1
2022-12-22T02:16:03,42.805,6.029,0.049,-0.05,0.025,100.0,102.0,100.0,13.4,1505.2,329.7,-0.8,1.8,2471.175,13.28,0.07,135.6
2022-12-22T02:19:03,42.805,6.029,0.042,-0.059,0.018,101.0,102.0,101.0,13.4,1505.2,333.0,-0.8,1.8,2471.147,13.28,0.072,144.6
2022-12-22T02:22:03,42.805,6.029,0.029,-0.044,0.025,99.0,102.0,101.0,13.4,1505.2,325.1,-0.8,1.8,2471.123,13.28,0.052,146.6
2022-12-22T02:25:03,42.805,6.029,0.043,-0.018,0.056,102.0,102.0,100.0,13.4,1505.2,333.1,-0.8,1.8,2471.137,13.28,0.046,112.7
2022-12-22T02:28:03,42.805,6.029,0.051,-0.044,0.026,99.0,103.0,101.0,13.4,1505.2,323.9,-0.8,1.8,2471.112,13.28,0.067,130.8
2022-12-22T02:31:03,42.805,6.029,0.036,-0.017,0.045,99.0,100.0,102.0,13.4,1505.2,330.0,-0.8,1.8,2471.135,13.28,0.039,115.3
2022-12-22T02:34:03,42.805,6.029,0.033,-0.041,0.023,99.0,101.0,101.0,13.4,1505.2,325.4,-0.8,1.8,2471.161,13.28,0.052,141.2
2022-12-22T02:37:03,42.805,6.029,0.036,-0.038,0.039,99.0,102.0,102.0,13.4,1505.2,332.6,-0.7,1.8,2471.136,13.28,0.052,136.5
2022-12-22T02:40:03,42.805,6.029,0.04,-0.031,0.039,101.0,99.0,102.0,13.4,1505.2,336.9,-0.8,1.8,2471.17,13.28,0.05,127.8
2022-12-22T02:43:03,42.805,6.029,0.039,-0.034,0.025,100.0,100.0,101.0,13.3,1505.2,318.3,-0.8,1.8,2471.157,13.28,0.051,131.1
2022-12-22T02:46:03,42.805,6.029,0.056,-0.029,0.043,101.0,101.0,101.0,13.4,1505.2,321.8,-0.8,1.8,2471.137,13.28,0.063,117.4
2022-12-22T02:49:03,42.805,6.029,0.022,-0.015,0.042,100.0,102.0,100.0,13.4,1505.2,319.4,-0.7,1.8,2471.175,13.28,0.026,124.3
2022-12-22T02:52:03,42.805,6.029,0.054,-0.04,0.02,100.0,101.0,101.0,13.4,1505.2,327.4,-0.7,1.8,2471.14,13.28,0.067,126.5
2022-12-22T02:55:03,42.805,6.029,0.072,-0.054,0.011,100.0,101.0,101.0,13.3,1505.2,325.4,-0.8,1.8,2471.185,13.28,0.089,126.9
2022-12-22T02:58:05,42.805,6.029,0.041,-0.04,0.046,101.0,103.0,99.0,13.3,1505.2,329.0,-0.8,1.8,2471.188,13.28,0.057,134.3
2022-12-22T03:04:03,42.805,6.029,0.044,-0.005,0.068,100.0,102.0,101.0,13.4,1505.2,316.5,-0.8,1.8,2471.231,13.28,0.044,96.5
2022-12-22T03:07:03,42.805,6.029,0.035,-0.029,0.027,100.0,101.0,100.0,13.4,1505.2,325.1,-0.8,1.8,2471.213,13.28,0.045,129.6
2022-12-22T03:10:03,42.805,6.029,0.024,-0.043,-0.017,100.0,102.0,100.0,13.4,1505.2,331.8,-0.8,1.8,2471.188,13.28,0.049,150.8
2022-12-22T03:13:03,42.805,6.029,0.021,-0.013,0.038,101.0,99.0,102.0,13.4,1505.2,324.7,-0.8,1.8,2471.195,13.28,0.024,121.8
2022-12-22T03:16:03,42.805,6.029,0.025,-0.025,0.046,100.0,101.0,102.0,13.3,1505.2,331.8,-0.8,1.8,2471.224,13.28,0.035,135.0
2022-12-22T03:19:03,42.805,6.029,0.056,-0.012,0.035,99.0,103.0,101.0,13.4,1505.2,316.5,-0.8,1.8,2471.208,13.28,0.057,102.1
2022-12-22T03:22:03,42.805,6.029,0.042,-0.046,0.016,101.0,101.0,101.0,13.4,1505.2,324.1,-0.8,1.8,2471.204,13.28,0.062,137.6
2022-12-22T03:25:03,42.805,6.029,0.038,-0.034,-0.018,100.0,100.0,101.0,13.3,1505.2,318.1,-0.8,1.8,2471.218,13.28,0.05,131.8
2022-12-22T03:28:03,42.805,6.029,0.04,-0.076,-0.012,99.0,101.0,101.0,13.4,1505.2,337.5,-0.8,1.8,2471.285,13.28,0.085,152.2
2022-12-22T03:31:03,42.805,6.029,0.044,-0.041,0.036,100.0,100.0,101.0,13.4,1505.2,320.8,-0.7,1.8,2471.169,13.28,0.06,133.0
2022-12-22T03:34:03,42.805,6.029,0.067,-0.04,0.059,100.0,102.0,101.0,13.4,1505.2,334.9,-0.8,1.8,2471.218,13.28,0.078,120.8
2022-12-22T03:37:03,42.805,6.029,0.033,-0.027,0.03,100.0,101.0,101.0,13.3,1505.2,327.7,-0.8,1.8,2471.214,13.28,0.042,129.3
2022-12-22T03:40:03,42.805,6.029,0.057,-0.043,0.021,99.0,100.0,101.0,13.4,1505.2,336.1,-0.8,1.8,2471.242,13.28,0.071,127.0
2022-12-22T03:43:03,42.805,6.029,0.056,-0.031,0.02,100.0,101.0,101.0,13.4,1505.2,321.2,-0.7,1.8,2471.215,13.28,0.064,119.0
2022-12-22T03:46:03,42.805,6.029,0.027,-0.031,0.0,99.0,101.0,101.0,13.3,1505.2,325.6,-0.8,1.8,2471.209,13.28,0.041,138.9
2022-12-22T03:49:03,42.805,6.029,0.046,-0.018,0.049,100.0,102.0,100.0,13.3,1505.2,316.9,-0.8,1.8,2471.245,13.28,0.049,111.4
2022-12-22T03:52:03,42.805,6.029,0.025,-0.034,0.034,101.0,102.0,99.0,13.3,1505.2,333.0,-0.8,1.9,2471.241,13.28,0.042,143.7
2022-12-22T03:55:03,42.805,6.029,0.04,-0.025,0.039,101.0,100.0,100.0,13.4,1505.2,322.3,-0.8,1.8,2471.195,13.28,0.047,122.0
2022-12-22T03:58:03,42.805,6.029,0.048,-0.029,0.056,100.0,100.0,101.0,13.4,1505.2,322.3,-0.8,1.8,2471.23,13.28,0.056,121.1
2022-12-22T04:04:03,42.805,6.029,0.027,-0.026,0.019,101.0,102.0,100.0,13.4,1505.2,327.9,-0.8,1.9,2471.293,13.28,0.037,133.9
2022-12-22T04:07:03,42.805,6.029,0.021,-0.013,0.042,100.0,101.0,100.0,13.4,1505.2,328.0,-0.8,1.8,2471.275,13.28,0.024,121.8
2022-12-22T04:10:03,42.805,6.029,0.051,-0.044,0.036,101.0,102.0,100.0,13.4,1505.2,325.0,-0.8,1.8,2471.266,13.28,0.067,130.8
2022-12-22T04:13:03,42.805,6.029,0.063,-0.036,0.025,100.0,102.0,101.0,13.3,1505.2,322.2,-0.8,1.8,2471.272,13.28,0.072,119.7
2022-12-22T04:16:03,42.805,6.029,0.049,-0.044,0.021,101.0,102.0,101.0,13.4,1505.2,327.7,-0.8,1.8,2471.279,13.28,0.065,131.9
2022-12-22T04:19:03,42.805,6.029,0.038,-0.037,0.035,101.0,101.0,101.0,13.3,1505.2,331.5,-0.8,1.8,2471.255,13.28,0.053,134.2
2022-12-22T04:22:03,42.805,6.029,-0.008,-0.005,0.039,101.0,101.0,100.0,13.4,1505.2,326.9,-0.8,1.9,2471.263,13.28,0.009,238.0
2022-12-22T04:25:03,42.805,6.029,0.037,-0.018,0.046,101.0,102.0,100.0,13.4,1505.2,325.4,-0.8,1.8,2471.247,13.28,0.041,115.9
2022-12-22T04:28:03,42.805,6.029,0.015,-0.031,-0.014,100.0,102.0,100.0,13.4,1505.2,336.3,-0.8,1.8,2471.275,13.28,0.034,154.2
2022-12-22T04:31:03,42.805,6.029,0.034,-0.035,0.028,100.0,101.0,101.0,13.4,1505.2,328.4,-0.8,1.8,2471.285,13.28,0.048,135.8
2022-12-22T04:34:03,42.805,6.029,0.051,-0.048,0.03,102.0,101.0,100.0,13.3,1505.2,327.6,-0.8,1.8,2471.256,13.28,0.07,133.3
2022-12-22T04:37:03,42.805,6.029,0.027,-0.032,-0.011,101.0,102.0,100.0,13.4,1505.2,317.6,-0.8,1.8,2471.239,13.28,0.041,139.8
2022-12-22T04:40:03,42.805,6.029,0.072,-0.01,0.06,101.0,101.0,101.0,13.4,1505.2,320.7,-0.8,1.8,2471.305,13.28,0.072,97.9
2022-12-22T04:43:03,42.805,6.029,0.041,-0.037,0.024,101.0,101.0,101.0,13.4,1505.2,325.1,-0.8,1.9,2471.248,13.28,0.055,132.1
2022-12-22T04:46:03,42.805,6.029,0.039,-0.039,0.032,101.0,101.0,100.0,13.4,1505.2,335.6,-0.8,1.8,2471.275,13.28,0.055,135.0
2022-12-22T04:49:03,42.805,6.029,0.032,-0.038,-0.003,101.0,102.0,100.0,13.4,1505.2,327.2,-0.8,1.8,2471.259,13.28,0.049,139.9
2022-12-22T04:52:03,42.805,6.029,0.055,-0.047,0.012,100.0,101.0,101.0,13.4,1505.2,331.5,-0.8,1.8,2471.309,13.28,0.072,130.5
2022-12-22T04:55:03,42.805,6.029,0.023,-0.036,0.014,101.0,101.0,101.0,13.4,1505.2,323.7,-0.8,1.8,2471.298,13.28,0.042,147.4
2022-12-22T04:58:03,42.805,6.029,0.029,-0.034,0.009,101.0,101.0,100.0,13.4,1505.2,332.0,-0.8,1.8,2471.257,13.28,0.044,139.5
2022-12-22T05:04:03,42.805,6.029,0.032,-0.017,0.048,101.0,102.0,101.0,13.3,1505.2,318.8,-0.8,1.8,2471.358,13.28,0.036,118.0
2022-12-22T05:07:03,42.805,6.029,0.047,-0.042,0.015,100.0,103.0,101.0,13.3,1505.2,320.8,-0.7,1.8,2471.347,13.28,0.063,131.8
2022-12-22T05:10:03,42.805,6.029,0.036,-0.036,0.051,101.0,102.0,101.0,13.3,1505.2,331.5,-0.7,1.8,2471.304,13.28,0.05,135.0
2022-12-22T05:13:03,42.805,6.029,0.065,-0.039,0.028,101.0,101.0,101.0,13.3,1505.2,316.5,-0.8,1.8,2471.302,13.28,0.075,121.0
2022-12-22T05:16:03,42.805,6.029,0.0,-0.02,0.004,101.0,102.0,101.0,13.3,1505.2,328.7,-0.8,1.8,2471.321,13.28,0.02,180.0
2022-12-22T05:19:03,42.805,6.029,0.029,-0.031,0.04,100.0,101.0,101.0,13.4,1505.2,329.1,-0.8,1.8,2471.323,13.28,0.042,136.9
2022-12-22T05:22:03,42.805,6.029,0.034,-0.057,0.0,100.0,102.0,100.0,13.3,1505.2,331.2,-0.8,1.8,2471.317,13.28,0.066,149.2
2022-12-22T05:25:03,42.805,6.029,0.072,-0.042,0.024,100.0,101.0,101.0,13.4,1505.2,317.0,-0.7,1.8,2471.319,13.28,0.083,120.3
2022-12-22T05:28:03,42.805,6.029,0.034,-0.053,0.013,101.0,101.0,101.0,13.4,1505.2,334.8,-0.7,1.9,2471.302,13.28,0.062,147.3
2022-12-22T05:31:03,42.805,6.029,0.023,-0.02,0.037,100.0,101.0,101.0,13.3,1505.2,327.7,-0.8,1.8,2471.297,13.28,0.03,131.0
2022-12-22T05:34:03,42.805,6.029,0.043,-0.025,0.033,100.0,102.0,101.0,13.3,1505.2,325.1,-0.8,1.8,2471.309,13.28,0.049,120.2
2022-12-22T05:37:03,42.805,6.029,0.035,-0.037,0.033,100.0,102.0,101.0,13.3,1505.2,332.3,-0.8,1.8,2471.295,13.28,0.05,136.6
2022-12-22T05:40:03,42.805,6.029,0.038,-0.031,0.024,101.0,102.0,101.0,13.3,1505.2,322.3,-0.8,1.8,2471.323,13.28,0.049,129.2
2022-12-22T05:43:03,42.805,6.029,0.037,-0.03,-0.003,100.0,102.0,101.0,13.4,1505.2,323.8,-0.8,1.8,2471.306,13.28,0.047,129.0
2022-12-22T05:46:03,42.805,6.029,0.035,-0.045,0.021,100.0,101.0,101.0,13.4,1505.2,324.2,-0.8,1.8,2471.303,13.28,0.057,142.1
2022-12-22T05:49:03,42.805,6.029,0.043,-0.023,0.03,101.0,101.0,101.0,13.4,1505.2,323.6,-0.8,1.8,2471.313,13.28,0.048,118.1
2022-12-22T05:52:02,42.805,6.029,0.036,-0.039,0.013,99.0,102.0,101.0,13.3,1505.2,329.0,-0.8,1.8,2471.297,13.28,0.053,137.3
2022-12-22T05:55:02,42.805,6.029,0.018,-0.044,0.015,101.0,102.0,100.0,13.4,1505.2,334.1,-0.8,1.9,2471.317,13.28,0.047,157.8
2022-12-22T05:58:02,42.805,6.029,0.047,-0.041,0.005,100.0,102.0,100.0,13.3,1505.2,320.6,-0.8,1.8,2471.34,13.28,0.062,131.1
2022-12-22T06:04:02,42.805,6.029,0.001,-0.028,0.009,100.0,101.0,101.0,13.3,1505.2,324.9,-0.7,1.8,2471.364,13.28,0.028,178.0
2022-12-22T06:07:02,42.805,6.029,0.015,-0.036,0.039,101.0,101.0,101.0,13.4,1505.2,324.0,-0.7,1.8,2471.359,13.28,0.039,157.4
2022-12-22T06:10:03,42.805,6.029,0.0,-0.038,0.013,101.0,102.0,100.0,13.4,1505.2,337.4,-0.8,1.8,2471.374,13.28,0.038,180.0
2022-12-22T06:13:03,42.805,6.029,0.015,-0.043,0.013,101.0,102.0,100.0,13.4,1505.2,323.7,-0.7,1.8,2471.304,13.28,0.045,160.8
2022-12-22T06:16:03,42.805,6.029,0.037,-0.032,0.03,100.0,102.0,101.0,13.4,1505.2,328.6,-0.8,1.8,2471.288,13.28,0.048,130.9
2022-12-22T06:19:03,42.805,6.029,0.049,-0.027,0.034,100.0,101.0,101.0,13.4,1505.2,321.1,-0.8,1.8,2471.311,13.28,0.055,118.9
2022-12-22T06:22:03,42.805,6.029,0.063,-0.049,0.014,101.0,102.0,101.0,13.4,1505.2,324.9,-0.8,1.8,2471.353,13.28,0.079,127.9
2022-12-22T06:25:03,42.805,6.029,0.03,-0.047,0.027,100.0,101.0,101.0,13.4,1505.2,331.0,-0.8,1.8,2471.318,13.28,0.055,147.4
2022-12-22T06:28:03,42.805,6.029,0.072,-0.045,0.041,100.0,101.0,101.0,13.4,1505.2,320.8,-0.8,1.8,2471.29,13.28,0.084,122.0
2022-12-22T06:31:03,42.805,6.029,0.017,-0.031,0.049,101.0,101.0,101.0,13.3,1505.2,330.6,-0.7,1.8,2471.3,13.28,0.035,151.3
2022-12-22T06:34:03,42.805,6.029,0.009,-0.029,0.025,100.0,101.0,101.0,13.3,1505.2,321.3,-0.7,1.8,2471.329,13.28,0.03,162.8
2022-12-22T06:37:03,42.805,6.029,0.031,-0.033,0.039,101.0,101.0,100.0,13.4,1505.2,322.2,-0.8,1.8,2471.327,13.28,0.045,136.8
2022-12-22T06:40:03,42.805,6.029,0.049,-0.048,0.064,101.0,101.0,100.0,13.4,1505.2,335.6,-0.8,1.8,2471.309,13.28,0.068,134.4
2022-12-22T06:43:03,42.805,6.029,0.055,-0.047,0.036,101.0,103.0,100.0,13.4,1505.2,328.1,-0.8,1.8,2471.309,13.28,0.072,130.5
2022-12-22T06:46:03,42.805,6.029,0.031,-0.044,0.003,100.0,102.0,100.0,13.4,1505.2,324.9,-0.8,1.8,2471.31,13.28,0.053,144.8
2022-12-22T06:49:03,42.805,6.029,0.016,-0.02,0.027,102.0,101.0,100.0,13.4,1505.2,321.5,-0.8,1.8,2471.333,13.28,0.025,141.3
2022-12-22T06:52:03,42.805,6.029,0.06,-0.036,0.029,101.0,101.0,101.0,13.4,1505.2,329.1,-0.7,1.8,2471.332,13.28,0.069,121.0
2022-12-22T06:55:03,42.805,6.029,0.045,-0.022,0.053,102.0,100.0,101.0,13.3,1505.2,321.3,-0.8,1.9,2471.284,13.28,0.05,116.1
2022-12-22T06:58:03,42.805,6.029,0.023,-0.019,0.049,101.0,101.0,100.0,13.4,1505.2,321.6,-0.8,1.8,2471.343,13.28,0.029,129.6
2022-12-22T07:04:03,42.805,6.029,0.017,-0.04,0.023,100.0,102.0,101.0,13.4,1505.2,334.2,-0.7,1.8,2471.363,13.28,0.043,157.0
2022-12-22T07:07:03,42.805,6.029,0.036,-0.063,-0.002,101.0,101.0,101.0,13.4,1505.2,329.3,-0.8,1.8,2471.355,13.28,0.072,150.3
2022-12-22T07:10:03,42.805,6.029,-0.008,-0.055,-0.051,101.0,101.0,101.0,13.4,1505.2,321.2,-0.8,1.8,2471.324,13.28,0.055,188.3
2022-12-22T07:13:03,42.805,6.029,0.071,-0.048,0.036,100.0,102.0,101.0,13.3,1505.2,331.3,-0.7,1.8,2471.34,13.28,0.085,124.1
2022-12-22T07:16:03,42.805,6.029,0.017,-0.032,0.031,100.0,102.0,101.0,13.3,1505.2,324.0,-0.7,1.8,2471.346,13.28,0.036,152.0
2022-12-22T07:19:03,42.805,6.029,0.057,-0.028,0.027,101.0,101.0,101.0,13.4,1505.2,320.9,-0.8,1.9,2471.306,13.28,0.063,116.2
2022-12-22T07:22:03,42.805,6.029,0.023,-0.034,0.031,101.0,101.0,100.0,13.3,1505.2,329.6,-0.8,1.8,2471.304,13.28,0.041,145.9
2022-12-22T07:25:03,42.805,6.029,0.015,-0.025,0.039,99.0,102.0,101.0,13.4,1505.2,321.3,-0.7,1.8,2471.331,13.28,0.029,149.0
2022-12-22T07:28:03,42.805,6.029,0.06,-0.054,0.004,101.0,102.0,101.0,13.4,1505.2,317.0,-0.7,1.8,2471.312,13.28,0.08,132.0
2022-12-22T07:31:03,42.805,6.029,0.039,-0.044,0.02,101.0,100.0,101.0,13.4,1505.2,332.7,-0.8,1.8,2471.309,13.28,0.058,138.4
2022-12-22T07:34:03,42.805,6.029,0.031,-0.04,0.027,100.0,101.0,101.0,13.4,1505.2,331.3,-0.8,1.8,2471.322,13.28,0.05,142.2
2022-12-22T07:37:03,42.805,6.029,0.025,-0.036,0.046,98.0,102.0,101.0,13.4,1505.2,334.5,-0.8,1.8,2471.3,13.28,0.043,145.2
2022-12-22T07:40:03,42.805,6.029,0.016,-0.032,0.052,101.0,101.0,101.0,13.3,1505.2,331.0,-0.8,1.8,2471.297,13.28,0.035,153.4
2022-12-22T07:43:03,42.805,6.029,0.01,-0.035,0.014,101.0,101.0,100.0,13.4,1505.2,336.9,-0.7,1.8,2471.322,13.28,0.036,164.1
2022-12-22T07:46:03,42.805,6.029,0.024,-0.038,0.046,100.0,101.0,101.0,13.4,1505.2,328.2,-0.8,1.8,2471.33,13.28,0.044,147.7
2022-12-22T07:49:03,42.805,6.029,0.058,-0.045,0.032,101.0,102.0,101.0,13.4,1505.2,334.1,-0.8,1.8,2471.302,13.28,0.073,127.8
2022-12-22T07:52:03,42.805,6.029,0.039,-0.039,0.038,100.0,102.0,101.0,13.4,1505.2,329.1,-0.7,1.8,2471.333,13.28,0.055,135.0
2022-12-22T07:55:03,42.805,6.029,0.046,-0.047,0.037,100.0,102.0,101.0,13.4,1505.2,329.0,-0.8,1.8,2471.312,13.28,0.065,135.6
2022-12-22T07:58:03,42.805,6.029,0.06,-0.048,0.013,101.0,101.0,100.0,13.4,1505.2,321.8,-0.8,1.8,2471.296,13.28,0.076,128.7
2022-12-22T08:04:03,42.805,6.029,0.047,-0.014,0.066,100.0,102.0,101.0,13.3,1505.2,320.2,-0.8,1.9,2471.333,13.28,0.049,106.6
2022-12-22T08:07:03,42.805,6.029,0.035,-0.039,0.056,100.0,102.0,101.0,13.3,1505.2,335.7,-0.7,1.8,2471.295,13.28,0.052,138.1
2022-12-22T08:10:03,42.805,6.029,0.044,-0.037,0.012,102.0,101.0,100.0,13.4,1505.2,324.2,-0.7,1.8,2471.31,13.28,0.057,130.1
2022-12-22T08:13:03,42.805,6.029,0.04,-0.045,0.004,100.0,101.0,101.0,13.3,1505.2,330.7,-0.8,1.8,2471.328,13.28,0.06,138.4
2022-12-22T08:16:03,42.805,6.029,0.031,-0.033,0.05,101.0,102.0,100.0,13.3,1505.2,331.6,-0.8,1.8,2471.332,13.28,0.045,136.8
2022-12-22T08:19:03,42.805,6.029,0.029,-0.044,0.009,99.0,102.0,102.0,13.4,1505.2,324.7,-0.8,1.8,2471.357,13.28,0.052,146.6
2022-12-22T08:22:03,42.805,6.029,0.016,-0.043,0.026,102.0,99.0,101.0,13.4,1505.2,333.4,-0.8,1.8,2471.255,13.28,0.045,159.6
2022-12-22T08:25:03,42.805,6.029,0.018,-0.028,0.025,101.0,102.0,100.0,13.3,1505.2,320.3,-0.8,1.8,2471.309,13.28,0.033,147.3
2022-12-22T08:28:03,42.805,6.029,0.035,-0.029,0.014,100.0,102.0,100.0,13.4,1505.2,320.1,-0.8,1.8,2471.272,13.28,0.045,129.6
2022-12-22T08:31:03,42.805,6.029,0.048,-0.031,0.024,100.0,101.0,101.0,13.4,1505.2,323.2,-0.8,1.8,2471.288,13.28,0.057,122.9
2022-12-22T08:34:03,42.805,6.029,0.046,-0.044,0.019,100.0,102.0,100.0,13.4,1505.2,323.2,-0.8,1.8,2471.3,13.28,0.063,133.7
2022-12-22T08:37:03,42.805,6.029,0.024,-0.026,0.033,100.0,103.0,100.0,13.4,1505.2,336.5,-0.8,1.8,2471.312,13.28,0.035,137.3
2022-12-22T08:40:03,42.805,6.029,0.022,-0.014,0.035,101.0,101.0,100.0,13.4,1505.2,327.3,-0.8,1.8,2471.27,13.28,0.026,122.5
2022-12-22T08:43:03,42.805,6.029,0.052,-0.052,0.01,102.0,103.0,99.0,13.4,1505.2,326.9,-0.8,1.8,2471.322,13.28,0.073,135.0
2022-12-22T08:46:03,42.805,6.029,0.037,-0.024,0.049,101.0,102.0,99.0,13.4,1505.2,328.4,-0.8,1.8,2471.262,13.28,0.044,123.0
2022-12-22T08:49:03,42.805,6.029,0.034,-0.029,0.025,101.0,101.0,101.0,13.4,1505.2,330.8,-0.8,1.8,2471.301,13.28,0.044,130.5
2022-12-22T08:52:03,42.805,6.029,0.065,-0.029,0.025,101.0,103.0,100.0,13.4,1505.2,328.9,-0.8,1.8,2471.274,13.28,0.071,114.0
2022-12-22T08:55:03,42.805,6.029,0.061,-0.041,0.035,99.0,102.0,102.0,13.3,1505.2,324.9,-0.8,1.8,2471.292,13.28,0.073,123.9
2022-12-22T08:58:03,42.805,6.029,0.011,-0.038,0.009,101.0,102.0,101.0,13.3,1505.2,334.6,-0.7,1.8,2471.267,13.28,0.039,163.9
2022-12-22T09:04:03,42.805,6.029,0.051,-0.033,0.031,101.0,102.0,100.0,13.4,1505.2,331.1,-0.7,1.8,2471.282,13.28,0.06,122.9
2022-12-22T09:07:03,42.805,6.029,-0.004,-0.007,0.015,101.0,102.0,101.0,13.4,1505.2,321.3,-0.8,1.8,2471.27,13.28,0.008,209.7
2022-12-22T09:10:03,42.805,6.029,0.01,-0.039,0.004,100.0,103.0,99.0,13.3,1505.2,330.0,-0.8,1.8,2471.335,13.28,0.04,165.6
2022-12-22T09:13:03,42.805,6.029,0.067,-0.011,0.056,99.0,102.0,101.0,13.4,1505.2,318.3,-0.8,1.8,2471.259,13.28,0.067,99.3
2022-12-22T09:16:03,42.805,6.029,0.049,-0.032,0.038,100.0,101.0,101.0,13.4,1505.2,326.5,-0.8,1.8,2471.269,13.28,0.058,123.2
2022-12-22T09:19:03,42.805,6.029,0.039,-0.025,0.041,100.0,99.0,101.0,13.4,1505.2,318.2,-0.7,1.8,2471.268,13.28,0.046,122.7
2022-12-22T09:22:03,42.805,6.029,0.037,-0.048,-0.009,100.0,101.0,101.0,13.4,1505.2,318.6,-0.8,1.8,2471.27,13.28,0.06,142.4
2022-12-22T09:25:03,42.805,6.029,0.045,-0.051,0.026,100.0,103.0,101.0,13.4,1505.2,335.9,-0.8,1.8,2471.246,13.28,0.068,138.6
2022-12-22T09:28:03,42.805,6.029,0.036,-0.053,0.019,101.0,102.0,100.0,13.3,1505.2,330.4,-0.8,1.8,2471.271,13.28,0.064,145.8
2022-12-22T09:31:03,42.805,6.029,0.057,-0.03,0.04,101.0,102.0,101.0,13.4,1505.2,325.1,-0.8,1.9,2471.244,13.28,0.064,117.8
2022-12-22T09:34:03,42.805,6.029,0.036,-0.039,0.0,100.0,100.0,101.0,13.4,1505.2,330.2,-0.7,1.9,2471.272,13.28,0.053,137.3
2022-12-22T09:37:03,42.805,6.029,0.071,-0.03,0.034,100.0,102.0,101.0,13.3,1505.2,317.0,-0.7,1.8,2471.204,13.28,0.077,112.9
2022-12-22T09:40:03,42.805,6.029,0.058,-0.068,-0.014,100.0,102.0,101.0,13.3,1505.2,326.7,-0.8,1.8,2471.265,13.28,0.089,139.5
2022-12-22T09:43:03,42.805,6.029,0.027,-0.025,0.028,101.0,102.0,100.0,13.4,1505.2,321.2,-0.8,1.8,2471.241,13.28,0.036,132.8
2022-12-22T09:46:03,42.805,6.029,0.023,-0.059,-0.019,101.0,103.0,100.0,13.3,1505.2,331.2,-0.8,1.8,2471.249,13.28,0.063,158.7
2022-12-22T09:49:03,42.805,6.029,0.043,-0.038,0.02,100.0,103.0,101.0,13.4,1505.2,334.9,-0.8,1.8,2471.209,13.28,0.057,131.5
2022-12-22T09:52:03,42.805,6.029,0.042,-0.039,0.014,100.0,102.0,100.0,13.4,1505.2,322.2,-0.8,1.8,2471.237,13.28,0.057,132.9
2022-12-22T09:55:03,42.805,6.029,0.02,-0.021,0.007,101.0,102.0,100.0,13.4,1505.2,320.8,-0.8,1.8,2471.231,13.28,0.028,136.4
2022-12-22T09:58:03,42.805,6.029,0.014,-0.02,0.027,99.0,102.0,102.0,13.4,1505.2,330.2,-0.7,1.8,2471.253,13.28,0.024,145.0